Location: Piotrkow Trybunalski
(51.4000°N, 19.6830°E)
Time: 03:51:21
(UTC+02:00)

A-11 Canister half - Pass Details

Date: 02 February 2023
Orbit: 1526 x 1682 km, 47.3° (Epoch: 24 March)

Event Time Altitude Azimuth Distance (km) Brightness Sun altitude
Rises 04:12:26 0° 189° (S) 4,668 11.4 -29.0°
Reaches altitude 10° 04:16:27 10° 174° (S) 3,685 10.9 -28.4°
Maximum altitude 04:22:42 21° 131° (SE) 2,949 10.9 -27.5°
Drops below altitude 10° 04:28:58 10° 88° (E) 3,718 12.0 -26.5°
Sets 04:33:01 0° 74° (ENE) 4,722 12.8 -25.9°
